Location: Boitzum
(52.1496°N, 9.6943°E)
Time: 06:10:26
(UTC+00:00)

Okean 2 - Pass Details

Date: 13 January 2026
Orbit: 515 x 524 km, 82.5° (Epoch: 18 February)

Event Time Altitude Azimuth Distance (km) Brightness Sun altitude
Exits shadow 04:55:19 67° 0° (N) 565 3.2 -22.0°
Maximum altitude 04:55:47 86° 80° (E) 525 3.1 -21.9°
Drops below altitude 10° 04:59:37 10° 169° (S) 1,741 6.1 -21.4°
Sets 05:01:44 0° 170° (S) 2,623 7.0 -21.0°
